Location: Unspecified
(49.9820°N, 20.4363°E)
Time: 21:16:43
(UTC+02:00)

ISS - Pass Details

Date: 24 May 2025
Orbit: 415 x 417 km, 51.6° (Epoch: 12 June)

Event Time Altitude Azimuth Distance (km) Brightness Sun altitude
Rises 21:29:58 0° 286° (WNW) 2,360 1.2 -8.1°
Reaches altitude 10° 21:32:15 10° 274° (W) 1,494 -0.2 -8.4°
Maximum altitude 21:35:08 27° 215° (SW) 838 -2.4 -8.7°
Enters shadow 21:37:44 12° 158° (SSE) 1,392 -1.7 -9.0°
